Regional Weather Roundup
Issued by NWS

Home | Current Version | Previous Version | Graphics & Text | Print | Product List | Glossary On
Versions: 1 2 3 4 5 6 7 8 9 10 11 12 13 14 15 16 17 18 19 20 21 22 23 24 25 26 27 28 29 30 31 32 33 34 35 36 37 38 39 40 41 42 43 44 45 46 47 48 49 50
000
ASUS43 KIND 210159
RWRIN

WEATHER ROUNDUP FOR INDIANA
NATIONAL WEATHER SERVICE INDIANAPOLIS IN
900 PM EST MON FEB 20 2017

NOTE: "FAIR" INDICATES FEW OR NO CLOUDS BELOW 12,000 FEET WITH NO
SIGNIFICANT WEATHER AND/OR OBSTRUCTIONS TO VISIBILITY.

* - STATION DOES NOT REPORT WEATHER SUCH AS PRECIPITATION OR FOG.

+ - STATION NOT QUALITY CONTROLLED BY THE NATIONAL WEATHER SERVICE.
    USE DATA WITH CAUTION...ESPECIALLY DEWPOINT AND RELATIVE
    HUMIDITY OBSERVATIONS.

INZ001>003-010>013-019-020-210300-
NORTHWEST INDIANA

CITY           SKY/WX    TMP DP  RH WIND       PRES   REMARKS
GARY /AIRPORT/ CLOUDY    63  41  45 SE14G25   29.98F
KNOX *+        CLOUDY    55  19  24 SE12      30.02F
LA PORTE +     CLOUDY    55  42  63 SE12      30.02F

$$

LMZ046-743>745-210300-
SOUTHERN LAKE MICHIGAN

STATION/POSITION TIME  TEMP    WIND        PRES    WAVE
                       AIR SEA DIR/SP/G            HT
                 (UTC) (F)     (DEG/KT/KT) (MB)    (FT)
BURNS HARBOR     0140   61     150/ 11/ 22 1015.6F
MICHIGAN CITY    0130   60     120/ 17/ 20   N/A

$$

INZ004-005-014>016-021>024-210300-
NORTH CENTRAL INDIANA

CITY           SKY/WX    TMP DP  RH WIND       PRES   REMARKS
ELKHART        CLEAR     55  41  58 E8        30.05F
GOSHEN         MOCLDY    54  39  57 E13       30.07S
SOUTH BEND     CLOUDY    57  41  55 SE16G24   30.05F
WARSAW +       CLOUDY    55  41  58 SE9       30.07F

$$

INZ006>009-017-018-025>027-210300-
NORTHEAST INDIANA

CITY           SKY/WX    TMP DP  RH WIND       PRES   REMARKS
ANGOLA *+      CLEAR     43  34  70 E12       30.11S
FORT WAYNE     CLOUDY    54  41  61 SE6       30.10S
KENDALLVILLE + CLOUDY    47  36  65 SE8       30.11R

$$

INZ028-029-035-036-043>045-051>053-210300-
WEST CENTRAL INDIANA

CITY           SKY/WX    TMP DP  RH WIND       PRES   REMARKS
LAFAYETTE      PTCLDY    58  46  64 SE10      30.02F
TERRE HAUTE    PTCLDY    58  45  62 SE8       30.03F

$$

INZ030>032-037>040-046>048-054>057-064-065-210300-
CENTRAL INDIANA

CITY           SKY/WX    TMP DP  RH WIND       PRES   REMARKS
COLUMBUS       CLEAR     55  48  76 E6        30.08R
FRANKFORT +    MOCLDY    57  48  73 SE10      30.06F
GREENWOOD *+   PTCLDY    57  48  72 CALM      30.08S
INDIANAPOLIS   MOCLDY    55  46  71 E8        30.07S
-EAGLE CREEK   CLOUDY    58  46  64 SE7       30.07R
KOKOMO +       PTCLDY    53  45  74 SE9       30.08R
MT COMFORT *+  PTCLDY    54  46  76 SE5       30.09R
SHELBYVILLE    PTCLDY    56  46  69 E8        30.08R

$$

INZ033-034-041-042-049-050-058-059-210300-
EAST CENTRAL INDIANA

CITY           SKY/WX    TMP DP  RH WIND       PRES   REMARKS
MUNCIE         PTCLDY    57  42  57 S5        30.09R

$$

INZ060-061-067>069-081>083-085>088-210300-
SOUTHWEST INDIANA

CITY           SKY/WX    TMP DP  RH WIND       PRES   REMARKS
EVANSVILLE     PTCLDY    61  47  59 SE5       30.04S
HUNTINGBURG *+ PTCLDY    58  48  69 SE5       30.05F

$$

INZ062-063-066-070>080-084-089>092-210300-
SOUTH CENTRAL AND SOUTHEAST INDIANA

CITY           SKY/WX    TMP DP  RH WIND       PRES   REMARKS
BLOOMINGTON    CLOUDY    52  43  71 CALM      30.06S
MADISON *+     CLOUDY    59  45  58 SE6       30.10R
SEYMOUR +      PTCLDY    54  45  71 CALM      30.07R

$$





USA.gov is the U.S. government's official web portal to all federal, state and local government web resources and services.